TimeCDT,TemperatureF,Dew PointF,Humidity,Sea Level PressureIn,VisibilityMPH,Wind Direction,Wind SpeedMPH,Gust SpeedMPH,PrecipitationIn,Events,Conditions,WindDirDegrees,DateUTC
12:15 AM,73.4,66.2,78,30.02,10.0,South,3.5,-,N/A,,Clear,170,2012-10-06 05:15:00
12:35 AM,71.6,66.2,83,30.03,10.0,Calm,Calm,-,N/A,,Clear,0,2012-10-06 05:35:00
12:55 AM,71.6,66.2,83,30.03,10.0,Calm,Calm,-,N/A,,Clear,0,2012-10-06 05:55:00
1:15 AM,69.8,66.2,88,30.03,10.0,Calm,Calm,-,N/A,,Clear,0,2012-10-06 06:15:00
1:55 AM,69.8,66.2,88,30.05,10.0,Calm,Calm,-,N/A,,Clear,0,2012-10-06 06:55:00
2:35 AM,71.6,66.2,83,30.05,10.0,Calm,Calm,-,N/A,,Mostly Cloudy,0,2012-10-06 07:35:00
3:15 AM,68.0,62.6,83,30.06,10.0,Calm,Calm,-,N/A,,Mostly Cloudy,0,2012-10-06 08:15:00
3:35 AM,66.2,60.8,83,30.05,10.0,NNE,6.9,-,N/A,,Mostly Cloudy,30,2012-10-06 08:35:00
3:55 AM,66.2,60.8,83,30.05,10.0,Calm,Calm,-,N/A,,Partly Cloudy,0,2012-10-06 08:55:00
4:15 AM,64.4,60.8,88,30.06,10.0,Calm,Calm,-,N/A,,Clear,0,2012-10-06 09:15:00
4:55 AM,64.4,60.8,88,30.07,10.0,North,3.5,-,N/A,,Partly Cloudy,10,2012-10-06 09:55:00
5:15 AM,62.6,59.0,88,30.07,10.0,Calm,Calm,-,N/A,,Partly Cloudy,0,2012-10-06 10:15:00
5:55 AM,62.6,57.2,82,30.08,10.0,Calm,Calm,-,N/A,,Mostly Cloudy,0,2012-10-06 10:55:00
6:15 AM,62.6,57.2,82,30.09,10.0,Calm,Calm,-,N/A,,Overcast,0,2012-10-06 11:15:00
6:35 AM,62.6,57.2,82,30.09,10.0,Calm,Calm,-,N/A,,Scattered Clouds,0,2012-10-06 11:35:00
6:55 AM,60.8,57.2,88,30.10,10.0,Calm,Calm,-,N/A,,Scattered Clouds,0,2012-10-06 11:55:00
7:15 AM,60.8,57.2,88,30.10,8.0,Calm,Calm,-,N/A,,Overcast,0,2012-10-06 12:15:00
7:35 AM,60.8,57.2,88,30.11,7.0,North,6.9,-,N/A,,Overcast,10,2012-10-06 12:35:00
7:55 AM,62.6,57.2,82,30.10,8.0,Calm,Calm,-,N/A,,Overcast,0,2012-10-06 12:55:00
8:15 AM,62.6,57.2,82,30.10,9.0,NNE,8.1,-,N/A,,Overcast,20,2012-10-06 13:15:00
8:35 AM,62.6,57.2,82,30.11,8.0,NNE,3.5,-,N/A,,Overcast,20,2012-10-06 13:35:00
8:55 AM,62.6,57.2,82,30.11,8.0,North,5.8,-,N/A,,Overcast,360,2012-10-06 13:55:00
9:15 AM,62.6,59.0,88,30.12,9.0,NNE,8.1,-,N/A,,Overcast,20,2012-10-06 14:15:00
9:35 AM,64.4,57.2,77,30.12,9.0,North,5.8,-,N/A,,Overcast,10,2012-10-06 14:35:00
9:55 AM,64.4,59.0,83,30.12,8.0,Calm,Calm,-,N/A,,Overcast,0,2012-10-06 14:55:00
10:15 AM,64.4,59.0,83,30.13,9.0,NNE,4.6,-,N/A,,Overcast,20,2012-10-06 15:15:00
10:35 AM,64.4,59.0,83,30.12,8.0,Calm,Calm,-,N/A,,Overcast,0,2012-10-06 15:35:00
10:55 AM,64.4,60.8,88,30.12,9.0,Calm,Calm,-,N/A,,Overcast,0,2012-10-06 15:55:00
11:35 AM,64.4,60.8,88,30.12,7.0,Calm,Calm,-,N/A,,Overcast,0,2012-10-06 16:35:00
11:55 AM,64.4,60.8,88,30.12,8.0,Calm,Calm,-,N/A,,Overcast,0,2012-10-06 16:55:00
12:15 PM,64.4,60.8,88,30.12,9.0,NNE,3.5,-,N/A,,Overcast,20,2012-10-06 17:15:00
12:35 PM,64.4,60.8,88,30.12,8.0,Calm,Calm,-,N/A,,Overcast,0,2012-10-06 17:35:00
12:55 PM,64.4,60.8,88,30.11,10.0,NNE,3.5,-,N/A,,Overcast,20,2012-10-06 17:55:00
1:15 PM,64.4,59.0,83,30.11,10.0,Calm,Calm,-,N/A,,Overcast,0,2012-10-06 18:15:00
1:35 PM,64.4,60.8,88,30.11,9.0,Calm,Calm,-,N/A,,Overcast,0,2012-10-06 18:35:00
1:55 PM,64.4,57.2,77,30.10,10.0,North,4.6,-,N/A,,Overcast,10,2012-10-06 18:55:00
2:15 PM,62.6,57.2,82,30.10,9.0,Calm,Calm,-,N/A,,Overcast,0,2012-10-06 19:15:00
2:35 PM,62.6,57.2,82,30.10,8.0,NNE,9.2,-,N/A,,Overcast,20,2012-10-06 19:35:00
2:55 PM,62.6,57.2,82,30.09,10.0,NE,8.1,-,N/A,,Overcast,40,2012-10-06 19:55:00
3:15 PM,62.6,57.2,82,30.09,10.0,NE,3.5,-,N/A,,Overcast,40,2012-10-06 20:15:00
3:35 PM,62.6,57.2,82,30.09,8.0,Calm,Calm,-,N/A,,Overcast,0,2012-10-06 20:35:00
3:55 PM,62.6,57.2,82,30.09,8.0,North,10.4,-,N/A,,Overcast,350,2012-10-06 20:55:00
4:15 PM,60.8,57.2,88,30.09,8.0,North,9.2,-,N/A,,Overcast,10,2012-10-06 21:15:00
4:35 PM,60.8,55.4,82,30.09,7.0,North,3.5,-,N/A,,Overcast,10,2012-10-06 21:35:00
4:55 PM,60.8,55.4,82,30.09,7.0,NE,11.5,-,N/A,,Overcast,40,2012-10-06 21:55:00
5:15 PM,60.8,55.4,82,30.08,6.0,NNE,6.9,-,N/A,,Haze,30,2012-10-06 22:15:00
5:35 PM,59.0,55.4,88,30.09,5.0,North,3.5,-,N/A,,Overcast,10,2012-10-06 22:35:00
5:55 PM,59.0,55.4,88,30.10,5.0,Calm,Calm,-,N/A,,Overcast,0,2012-10-06 22:55:00
6:15 PM,57.2,53.6,88,30.11,4.0,NNE,10.4,-,N/A,,Overcast,20,2012-10-06 23:15:00
6:35 PM,57.2,53.6,88,30.11,5.0,NNE,10.4,-,N/A,,Overcast,20,2012-10-06 23:35:00
6:55 PM,57.2,53.6,88,30.11,5.0,North,5.8,-,N/A,,Overcast,10,2012-10-06 23:55:00
7:15 PM,55.4,53.6,94,30.13,6.0,North,10.4,16.1,N/A,,Overcast,10,2012-10-07 00:15:00
7:35 PM,55.4,53.6,94,30.13,8.0,NNE,5.8,-,N/A,,Overcast,20,2012-10-07 00:35:00
7:55 PM,55.4,51.8,88,30.14,8.0,NNE,12.7,-,N/A,,Overcast,20,2012-10-07 00:55:00
8:15 PM,55.4,51.8,88,30.15,7.0,NNE,8.1,17.3,N/A,,Overcast,30,2012-10-07 01:15:00
8:35 PM,53.6,51.8,94,30.16,8.0,NNE,12.7,17.3,N/A,,Overcast,30,2012-10-07 01:35:00
8:55 PM,53.6,50.0,88,30.17,8.0,North,12.7,19.6,N/A,,Overcast,10,2012-10-07 01:55:00
9:15 PM,53.6,48.2,82,30.17,10.0,NNE,15.0,18.4,N/A,,Overcast,20,2012-10-07 02:15:00
9:35 PM,53.6,48.2,82,30.17,10.0,NNE,11.5,16.1,N/A,,Overcast,20,2012-10-07 02:35:00
9:55 PM,53.6,48.2,82,30.18,10.0,NNE,10.4,19.6,N/A,,Overcast,20,2012-10-07 02:55:00
10:15 PM,53.6,48.2,82,30.18,10.0,NNE,13.8,18.4,N/A,,Overcast,30,2012-10-07 03:15:00
10:35 PM,53.6,46.4,77,30.19,10.0,NE,12.7,20.7,N/A,,Overcast,40,2012-10-07 03:35:00
10:55 PM,53.6,46.4,77,30.19,10.0,NE,10.4,-,N/A,,Overcast,40,2012-10-07 03:55:00
11:15 PM,53.6,46.4,77,30.20,10.0,NNE,11.5,-,N/A,,Overcast,20,2012-10-07 04:15:00
11:35 PM,53.6,46.4,77,30.20,10.0,NE,12.7,17.3,N/A,,Overcast,40,2012-10-07 04:35:00
11:55 PM,51.8,44.6,76,30.19,10.0,NNE,12.7,18.4,N/A,,Overcast,30,2012-10-07 04:55:00